EHI
0 0 0 0 0 1 2 3 3 2 1 2 3 3 4 5 4 2 0 1 2 4 4 2 0 0 0 1 2 2 4 6 7 6 5 4 3 3 2 0 0 0 0
0 0 0 0 0 0 1 3 3 2 1 2 3 4 4 5 4 2 0 0 1 3 5 3 1 0 0 1 3 4 6 8 9 8 6 5 4 4 2 1 0 0 0
0 0 0 0 0 0 1 2 3 2 1 1 3 3 4 4 3 2 1 0 1 3 5 4 2 0 0 2 4 5 7 8 8 7 5 3 3 3 3 1 0 1 1
0 0 0 0 0 0 0 1 2 1 0 1 1 2 2 2 2 2 1 1 3 4 5 4 2 1 1 2 4 5 5 5 5 4 3 1 1 2 2 1 1 1 2
0 0 0 0 0 0 0 0 0 0 0 0 0 0 0 0 1 1 1 3 4 5 4 2 1 1 1 2 2 3 3 3 3 2 1 0 1 1 1 1 0 1 1
0 0 0 0 0 0 0 0 0 0 0 1 0 0 0 0 0 1 2 4 5 4 2 1 0 0 0 0 1 1 2 2 2 1 0 0 0 0 0 0 0 0 0
0 0 0 0 0 0 0 1 1 1 0 0 0 0 0 0 1 2 3 5 5 4 2 1 0 0 0 0 0 0 0 1 1 0 0 0 0 0 0 0 0 0 0
0 0 0 0 0 0 0 1 2 1 0 0 0 0 0 0 1 3 4 5 4 3 3 1 1 2 1 0 0 0 0 0 0 0 0 0 0 0 0 0 0 0 0
0 0 0 0 0 0 0 1 1 1 0 0 0 0 0 0 2 4 5 4 3 3 3 2 2 2 1 0 0 0 0 0 0 0 0 0 0 0 0 0 0 0 0
0 0 0 0 0 0 0 0 0 0 0 0 0 0 0 0 1 3 3 3 3 2 2 1 1 1 1 0 0 0 0 0 0 0 0 0 0 0 0 0 0 0 0
0 0 0 0 0 0 0 0 0 0 0 1 0 0 0 0 0 1 1 2 1 1 1 0 0 0 0 0 0 0 0 0 0 0 0 0 0 0 0 0 0 0 0
0 0 0 0 0 0 0 0 0 0 0 0 0 0 0 0 0 0 1 1 1 0 0 0 0 0 0 0 0 0 0 0 0 0 0 0 0 0 0 0 0 0 0
0 0 0 0 0 0 0 0 0 0 0 0 0 0 0 0 0 0 0 0 0 0 0 0 0 0 0 0 0 0 0 0 0 0 0 0 0 0 0 0 0 0 0
0 0 0 0 0 0 0 0 0 0 0 0 0 0 0 0 0 0 0 0 0 0 0 0 0 0 0 0 0 0 0 0 0 0 0 0 0 0 0 0 0 0 0
0 0 0 0 0 0 0 0 0 0 0 0 0 0 0 0 0 0 0 0 0 0 0 0 0 0 0 0 0 0 0 0 0 0 0 0 0 0 1 1 0 0 0
0 0 0 0 0 0 0 0 0 0 0 0 0 0 0 0 0 0 0 0 0 0 0 0 0 0 0 0 0 0 0 0 0 0 0 0 0 0 1 1 0 0 0
0 0 0 0 0 0 0 0 0 0 0 0 0 0 0 0 0 0 0 0 0 0 0 0 0 0 0 0 0 0 0 0 0 0 0 0 0 0 1 1 0 0 0
0 0 0 0 0 0 0 0 0 0 0 0 0 0 0 0 0 0 0 0 0 0 0 0 0 0 0 0 0 0 0 0 0 0 0 0 0 0 0 0 0 0 0
0 0 0 0 0 0 0 0 0 0 0 0 0 0 0 0 0 0 0 0 0 0 0 0 0 0 0 0 0 0 0 0 0 0 0 0 0 0 0 0 0 0 0
0 0 0 0 0 0 0 0 0 0 0 0 0 0 0 0 0 0 0 0 0 0 0 0 0 0 0 0 0 0 0 0 0 0 0 0 0 0 0 0 0 0 0
0 0 0 0 0 0 0 0 1 0 0 0 0 0 0 0 0 0 0 0 0 0 0 0 0 0 0 0 0 0 0 0 0 0 0 0 0 0 0 0 0 0 0
0 0 0 0 0 0 0 0 0 0 0 0 0 0 0 0 0 0 0 0 0 0 0 0 0 0 0 0 0 0 0 0 0 0 0 0 0 0 0 0 0 0 0
0 0 0 0 0 0 0 0 0 0 0 0 0 0 0 0 0 0 0 0 0 0 0 0 0 0 0 0 0 0 0 0 0 0 0 0 0 0 0 0 0 0 0
0 0 0 0 0 0 0 0 0 0 0 0 0 0 0 0 0 0 0 0 0 0 0 0 0 0 0 0 0 0 0 0 0 0 0 0 0 0 0 0 0 0 0
0 0 0 0 0 0 0 0 0 0 0 0 0 0 0 0 0 0 0 0 0 0 0 0 0 0 0 0 0 0 0 0 0 0 0 0 0 0 0 0 0 0 0
0 0 0 0 0 0 0 0 0 0 0 0 0 0 0 0 0 0 0 0 0 0 0 0 0 0 0 0 0 0 0 0 0 0 0 0 0 0 0 0 0 0 0
Wind_Speed
2 2 3 5 6 7 8 9 9 10 10 11 11 11 11 11 10 10 10 10 10 9 9 9 9 9 8 8 8 8 8 8 8 8 8 7 7 8 8 8 7 4 8
1 1 2 5 7 8 9 9 9 10 11 11 11 11 11 11 11 11 10 10 10 10 10 10 9 9 8 7 7 8 8 8 9 9 8 7 7 8 8 8 8 5 7
1 1 2 5 7 8 9 9 9 10 10 11 11 11 12 12 12 12 10 10 10 10 10 10 9 9 9 8 8 8 8 9 9 8 7 4 4 8 8 8 9 8 7
2 2 2 5 6 7 8 9 9 10 10 10 11 11 11 11 11 12 12 11 11 10 10 10 10 10 10 10 10 9 9 9 9 8 5 4 3 7 8 8 8 8 8
3 2 2 5 6 7 8 9 9 9 10 10 10 11 11 11 11 11 11 11 11 11 11 11 11 10 10 10 10 10 9 9 9 7 4 4 3 7 8 8 8 8 7
3 2 2 5 6 7 8 8 8 9 9 10 10 10 10 10 11 11 11 11 11 11 11 10 10 10 10 9 9 9 9 9 8 5 4 4 3 6 8 8 8 8 7
3 2 2 5 6 7 8 8 8 9 9 9 10 10 10 10 10 10 10 10 10 10 10 10 9 9 9 9 9 9 9 9 6 4 4 3 4 7 7 7 7 7 7
3 3 3 4 6 7 7 8 8 8 8 9 9 9 9 9 10 10 10 10 10 10 10 9 9 9 9 9 9 8 8 7 6 5 3 3 5 7 8 7 7 7 7
3 3 3 3 4 6 7 7 8 8 8 8 8 8 9 9 10 10 10 10 10 9 9 10 10 9 9 9 9 9 9 9 5 3 4 3 6 7 7 7 7 7 7
4 3 3 3 4 4 4 6 7 8 8 8 8 9 9 9 10 10 9 9 9 10 10 10 10 10 10 9 9 9 10 7 4 4 3 3 7 7 8 8 8 8 7
3 3 3 3 3 3 3 5 6 7 8 8 7 9 8 5 5 6 8 10 10 10 10 10 10 10 10 9 9 9 7 3 4 3 3 6 7 7 8 8 7 7 7
1 1 2 2 2 2 3 3 3 4 4 5 4 5 4 4 4 6 8 10 10 10 10 10 11 10 7 4 6 7 3 4 3 3 3 6 7 7 7 7 7 6 6
2 1 1 1 2 2 2 2 2 2 3 3 4 4 3 3 3 4 3 5 6 7 5 6 6 4 4 3 3 3 3 3 2 2 3 6 6 6 7 7 7 6 5
2 1 1 1 2 2 2 2 2 2 2 2 3 3 3 2 3 3 3 3 3 3 3 3 3 4 4 4 4 4 4 2 2 2 3 6 6 6 6 7 7 6 5
2 1 1 1 2 1 2 1 2 2 2 2 2 3 3 2 3 3 3 3 3 3 3 3 3 4 4 4 4 4 4 3 3 3 3 6 6 6 7 7 7 6 6
1 1 1 1 1 2 2 1 1 1 1 2 2 2 3 2 2 2 3 3 3 3 3 3 3 3 3 3 4 4 3 3 3 3 3 4 6 7 7 7 7 7 6
1 1 1 2 2 2 2 2 1 1 1 1 1 2 2 2 2 2 2 2 2 3 3 3 3 3 3 3 4 4 3 3 3 3 3 3 3 6 7 7 7 7 7
2 1 1 1 2 2 2 2 1 1 1 1 1 1 2 3 3 2 2 2 2 2 2 3 3 3 3 3 3 3 3 3 3 3 3 3 3 3 5 7 7 7 7
2 2 1 1 1 2 2 2 2 2 1 1 1 1 2 2 2 2 2 2 2 2 2 2 3 2 2 3 2 2 3 3 3 3 3 3 3 3 3 5 7 7 6
2 2 2 2 2 2 2 2 2 2 1 1 1 1 1 1 2 2 2 2 2 2 2 2 2 3 2 2 2 3 2 2 2 2 2 2 3 3 3 3 4 5 6
2 3 2 2 1 2 2 1 1 1 1 1 1 1 1 1 1 2 1 1 1 1 1 2 2 2 2 2 2 3 3 2 2 2 2 2 3 2 2 3 2 2 3
2 2 2 2 1 1 2 1 1 1 1 0 1 1 1 1 1 1 1 1 1 1 2 2 2 1 1 2 1 1 3 4 3 3 2 2 2 2 2 2 2 2 2
2 2 2 2 2 2 2 3 3 3 2 2 2 1 1 1 1 1 1 1 1 1 1 0 1 1 0 1 1 1 1 1 3 3 2 2 2 2 2 1 1 2 2
3 2 2 2 2 2 3 4 4 2 1 1 1 1 1 1 1 1 1 1 1 1 1 0 1 1 1 0 1 1 1 1 0 3 3 2 3 2 2 1 1 1 1
3 2 2 2 2 2 2 3 3 2 1 0 0 1 1 1 1 1 1 1 1 1 0 0 0 1 1 1 1 0 0 0 1 1 3 3 3 2 2 2 1 1 1
2 2 2 2 2 2 2 2 3 2 1 1 0 0 1 1 1 1 0 0 0 0 1 1 1 1 1 1 1 1 1 1 1 1 2 3 3 3 3 2 1 1 1
Wind_Direction
303 304 11 65 72 73 70 67 66 67 65 65 66 66 65 68 75 77 79 77 76 79 80 80 80 80 79 79 83 84 82 80 76 73 71 68 66 64 62 59 66 93 97
219 308 57 70 77 77 75 72 69 68 67 67 68 69 67 68 72 73 78 76 74 74 77 78 78 75 72 75 86 87 83 80 75 69 64 61 61 63 65 64 71 85 90
103 48 70 73 76 79 78 77 73 71 71 69 70 70 70 68 68 69 74 76 75 74 76 77 75 73 67 70 82 87 82 79 75 69 57 39 47 63 65 66 72 77 83
99 66 77 82 82 81 80 77 73 72 72 72 71 72 72 71 69 68 67 70 69 71 72 73 71 72 68 70 76 80 79 78 73 65 49 35 37 64 65 67 70 72 73
76 58 81 88 85 83 81 79 76 75 74 73 70 71 71 71 70 68 66 64 64 64 65 66 66 67 68 71 73 75 75 72 67 56 42 33 31 60 63 65 68 70 71
72 58 88 93 87 82 80 79 77 74 74 73 71 70 71 71 71 68 66 65 64 64 63 61 61 62 65 70 70 71 73 70 61 50 42 35 33 60 66 66 68 70 71
85 59 81 93 91 86 81 79 76 73 73 73 72 71 71 70 71 68 65 63 62 61 61 60 59 61 64 69 69 72 74 69 60 51 42 36 44 59 65 69 69 68 70
88 67 67 89 88 86 84 82 78 75 73 72 70 70 70 67 66 65 63 60 59 57 58 59 59 61 63 67 66 69 71 66 62 54 42 35 51 62 62 61 62 62 66
72 63 48 47 63 76 79 76 75 73 71 69 66 65 65 62 59 59 57 56 55 55 57 59 58 61 61 64 65 68 69 63 54 42 46 35 54 60 63 61 58 57 59
63 54 49 43 44 46 55 68 69 67 66 66 62 61 59 56 53 51 50 51 52 53 56 58 58 59 60 61 62 68 67 57 44 40 30 40 54 56 58 58 58 58 55
60 44 48 51 47 46 51 60 60 61 56 57 55 58 53 43 41 43 45 49 50 51 52 54 53 55 56 54 55 60 59 46 39 33 24 43 51 55 54 52 52 53 54
85 52 52 58 50 48 56 52 45 45 42 46 47 46 46 44 40 44 43 48 49 48 48 48 47 46 45 39 43 46 44 40 38 25 30 38 45 50 52 48 47 51 55
166 138 104 81 60 61 56 58 46 42 41 45 47 50 50 44 38 36 34 33 36 41 38 36 37 30 32 34 36 38 40 43 32 17 19 36 44 48 49 46 44 48 55
122 117 95 88 80 67 63 60 59 50 44 42 41 50 56 49 40 35 37 28 31 32 31 29 33 32 32 34 42 45 40 38 29 17 14 33 42 46 45 43 41 39 46
123 136 124 99 111 101 79 63 70 59 53 50 50 49 59 65 52 41 37 36 32 32 34 32 35 34 31 32 36 44 40 36 31 27 13 32 40 43 43 38 35 36 43
140 163 151 126 137 128 113 96 86 77 65 54 50 49 60 68 65 54 44 38 31 30 32 38 39 38 31 35 34 33 34 32 35 32 24 21 30 38 38 34 33 36 45
151 137 135 146 118 140 138 122 102 94 84 67 52 50 61 68 69 67 58 41 25 29 39 45 40 38 38 35 29 25 30 28 33 32 27 23 17 28 33 35 34 37 46
108 109 130 146 129 132 141 134 115 102 91 74 67 61 67 71 77 76 65 45 30 37 41 47 41 38 31 27 18 12 19 19 20 26 28 27 22 19 19 28 33 37 43
124 129 112 81 121 130 123 125 119 100 87 76 71 67 69 70 76 84 75 51 49 49 41 46 39 40 32 20 10 9 9 10 4 16 24 19 22 25 15 18 27 28 33
102 101 99 79 73 94 93 88 85 77 64 61 66 61 78 80 85 88 79 59 61 60 41 40 43 35 35 14 15 10 356 353 6 10 8 11 15 23 26 22 17 10 19
87 86 96 87 76 101 97 110 123 126 62 39 37 56 78 89 95 105 87 72 63 75 70 61 60 40 24 12 26 360 350 1 16 7 6 19 11 9 22 23 17 13 1
132 126 113 113 108 122 126 131 133 131 118 106 26 35 52 89 95 102 112 108 93 89 69 60 68 51 16 20 53 32 351 345 352 3 356 13 2 0 11 12 13 11 1
157 169 161 159 136 102 102 90 65 52 35 27 18 11 358 71 97 95 112 124 118 124 139 113 102 98 50 358 40 107 110 281 317 329 339 357 355 353 345 343 356 353 355
199 180 157 154 132 112 107 114 115 111 129 249 253 278 337 20 56 81 106 121 125 133 169 200 93 130 132 323 347 8 187 185 214 318 327 342 345 333 324 324 325 324 343
178 161 149 136 125 117 122 130 133 130 154 337 24 30 355 340 349 22 102 124 149 168 204 206 152 157 164 182 194 225 23 17 159 192 298 323 334 315 301 283 285 301 318
140 136 130 128 130 126 130 139 146 146 137 106 25 298 294 299 309 325 40 135 206 199 225 246 219 198 207 210 206 192 180 192 212 191 242 294 305 306 304 284 271 277 290